Погода в Мугартах

Россия / Республика Дагестан     41°59′50″N   48°09′41″E
темп.,
°C
ветер,
м/с
пор.,
м/с
влажн.,
%
обл.,
%
осадки,
мм/ч
давл.,
гПа
погр.,
м
28 сентября, вт
вт2800:00+16ссв3473100 0.9 1017326
03:00+16ссз3469100 1.3 1017453
06:00+15с2269100 0.1 1018251
09:00+15ссз1171100 0.2 1018530
12:00+14св1178100 0.2 1018349
15:00+14с1280100 0.4 1018302
18:00+14сз2382100 0.6 1020267
21:00+14ссз3381100 1.0 1021247
29 сентября, ср
ср2900:00+14сз2378100 0.4 1021172
03:00+14з1275100 0.7 1021113
06:00+14сз1171100 0.1 1022128
09:00+13сз2280100 0.9 1022210
12:00+13зсз2379100 0.9 1022242
15:00+13ссз4588100 2.4 1022468
18:00+13сз4587100 1.8 1023368
21:00+12зсз3485100 2.8 1023197
30 сентября, чт
чт3000:00+12сз3489100 2.6 1023291
03:00+13св3496100 13.0 1023338
06:00+12св3494100 12.4 1024371
09:00+12всв4592100 24.4 1026508
12:00+12св3489100 5.9 1026488
15:00+12св2384100 9.1 1026477
18:00+12св1289100 2.1 1027319
21:00+12ссз1188100 3.9 1027154
1 октября, пт
пт100:00+12св2291100 1.9 1027320
03:00+11вюв3589100 5.6 1027535
06:00+11ю2385100 1.2 1027267
09:00+11ююз2382100 1.7 1028200
12:00+12ю2479100 0.6 1027336
15:00+12ю2481100 1.1 1027342
18:00+12ю3485100 0.8 1028240
21:00+12ю2382100 1.1 1028236
2 октября, сб
сб200:00+11ююз2281100 0.2 1028129
03:00+12юз1178100 0.3 102764
06:00+12ююз1174100 0.0 102770
09:00+13ююз1170100 0.0 1028121
12:00+13ююв1265100 0.0 1027278
15:00+14ю126598 0.0 1027344
18:00+13юз1171100 0.0 102773
21:00+13ю1171100 0.0 1027104